FW7772 Weather Reports


Display with metric or nautical units.
time (UTC)temp
F
wind
direction
speed
MPH
gust
MPH
rain 1hr
in
rain 24hr
in
rain mn
in
humidity
%
barometer
mb
20260509003443 37 317 1.0 3.0 0.00 0.00 0.00 71 1025.4
20260509002443 37 317 1.0 3.0 0.00 0.00 0.00 70 1025.4
20260509001443 37 300 1.0 2.0 0.00 0.00 0.00 69 1025.4
20260509000442 37 300 1.0 3.0 0.00 0.00 0.00 68 1025.4
20260508235441 38 354 2.0 3.0 0.00 0.00 0.00 67 1025.4
20260508234441 38 354 1.0 3.0 0.00 0.00 0.00 67 1025.3
20260508233440 38 67 1.0 4.0 0.00 0.00 0.00 66 1025.3
20260508232441 39 74 2.0 4.0 0.00 0.00 0.00 65 1025.4
20260508231440 39 76 2.0 4.0 0.00 0.00 0.00 63 1025.3
20260508230934 40 25 2.0 3.0 0.00 0.00 0.00 62 1025.3
20260508225441 40 320 2.0 4.0 0.00 0.00 0.00 62 1025.4
20260508224440 41 56 1.0 2.0 0.00 0.00 0.00 59 1025.3
20260508223441 42 93 0.0 2.0 0.00 0.00 0.00 59 1025.2
20260508222432 42 93 0.0 2.0 0.00 0.00 0.00 57 1025.2
20260508221433 43 93 1.0 3.0 0.00 0.00 0.00 57 1024.9
20260508220433 44 30 0.0 2.0 0.00 0.00 0.00 54 1025.0
20260508220357 44 30 0.0 2.0 0.00 0.00 0.00 53 1024.9
20260508214431 45 23 1.0 3.0 0.00 0.00 0.00 51 1024.8
20260508213431 46 65 1.0 3.0 0.00 0.00 0.00 51 1024.8
20260508212912 47 65 3.0 5.0 0.00 0.00 0.00 49 1024.6
20260508211910 47 64 4.0 8.0 0.00 0.00 0.00 49 1024.6
20260508210429 49 64 2.0 4.0 0.00 0.00 0.00 49 1024.3
20260508205428 50 189 2.0 4.0 0.00 0.00 0.00 45 1024.2
20260508204431 51 241 2.0 7.0 0.00 0.00 0.00 41 1024.1
20260508203429 51 211 2.0 4.0 0.00 0.00 0.00 40 1024.0
20260508202429 52 224 2.0 5.0 0.00 0.00 0.00 39 1024.0
20260508201431 52 173 2.0 4.0 0.00 0.00 0.00 38 1023.9
20260508200429 53 145 2.0 8.0 0.00 0.00 0.00 37 1023.7
20260508195429 54 158 2.0 6.0 0.00 0.00 0.00 35 1023.7
20260508194913 54 192 1.0 4.0 0.00 0.00 0.00 34 1023.6
20260508193429 55 195 2.0 4.0 0.00 0.00 0.00 34 1023.5
20260508192910 56 193 2.0 4.0 0.00 0.00 0.00 33 1023.5
20260508191430 56 191 2.0 6.0 0.00 0.00 0.00 32 1023.3
20260508190429 56 224 2.0 7.0 0.00 0.00 0.00 31 1023.3
20260508185430 57 189 3.0 7.0 0.00 0.00 0.00 30 1023.2
20260508184916 57 181 3.0 7.0 0.00 0.00 0.00 30 1023.2
20260508183908 58 152 2.0 5.0 0.00 0.00 0.00 30 1023.1
20260508182428 58 166 2.0 5.0 0.00 0.00 0.00 29 1023.0
20260508181428 58 158 2.0 8.0 0.00 0.00 0.00 29 1022.9
20260508180429 58 153 3.0 9.0 0.00 0.00 0.00 28 1022.6
20260508175429 59 131 4.0 10.0 0.00 0.00 0.00 28 1022.5
20260508174910 59 221 4.0 15.0 0.00 0.00 0.00 26 1022.5
20260508173913 60 160 4.0 11.0 0.00 0.00 0.00 27 1022.3
20260508172430 60 183 5.0 15.0 0.00 0.00 0.00 26 1022.2
20260508171429 60 144 4.0 13.0 0.00 0.00 0.00 26 1022.2
20260508170432 60 12 5.0 12.0 0.00 0.00 0.00 26 1022.2
20260508165429 60 183 4.0 14.0 0.00 0.00 0.00 26 1022.2
20260508164429 61 214 5.0 16.0 0.00 0.00 0.00 26 1022.2
20260508163429 61 197 6.0 16.0 0.00 0.00 0.00 25 1022.3
20260508163339 61 166 6.0 17.0 0.00 0.00 0.00 24 1022.2